This is the latest recevied weather packets stored in our database for station/object HP1CDW-13. If no packets are shown the sender has not sent any weather packets the latest 1 day(s).
| Time | Temp. | Humidity | Pressure | Rain* | Wind** | Luminosity | Snow |
|---|---|---|---|---|---|---|---|
| 1836274369 | 26.11° C | 92% | 1017.3 hPa | 0 mm | 0.45 m/s, 207° | - | - |
| 1836274219 | 26.11° C | 93% | 1017.6 hPa | 0 mm | 0 m/s | - | - |
| 1778040890 | 26.67° C | 93% | 1015.3 hPa | 0 mm | 0.89 m/s, 294° | - | - |
| 1778040290 | 26.67° C | 93% | 1015.5 hPa | 0 mm | 0.89 m/s, 312° | - | - |
| 1778039690 | 27.22° C | 93% | 1015.2 hPa | 0 mm | 0.45 m/s, 330° | - | - |
| 1778039090 | 27.22° C | 93% | 1015.4 hPa | 0 mm | 0.45 m/s, 318° | - | - |
| 1778038490 | 27.22° C | 93% | 1015.3 hPa | 0 mm | 0.45 m/s, 288° | - | - |
| 1778037890 | 27.22° C | 93% | 1015.1 hPa | 0 mm | 0.45 m/s, 286° | - | - |
| 1778037290 | 27.22° C | 93% | 1015.1 hPa | 0 mm | 0.45 m/s, 105° | - | - |
| 1778036690 | 27.22° C | 92% | 1015 hPa | 0 mm | 0 m/s | - | - |
| 1778036090 | 27.22° C | 92% | 1015.2 hPa | 0 mm | 0.45 m/s, 311° | - | - |
| 1778035490 | 27.22° C | 93% | 1015.3 hPa | 0 mm | 0 m/s | - | - |
| 1778034890 | 27.22° C | 93% | 1014.8 hPa | 0 mm | 0 m/s | - | - |
| 1778034290 | 27.22° C | 94% | 1014.9 hPa | 0 mm | 0.45 m/s, 204° | - | - |
| 1778033690 | 26.67° C | 94% | 1014.7 hPa | 0 mm | 0.45 m/s, 303° | - | - |
| 1778033090 | 26.67° C | 94% | 1014.4 hPa | 0 mm | 0 m/s | - | - |
| 1778032490 | 26.67° C | 94% | 1014.2 hPa | 0 mm | 0 m/s | - | - |
| 1778031890 | 27.22° C | 94% | 1014.4 hPa | 0 mm | 0.89 m/s, 211° | - | - |
| 1778031290 | 27.22° C | 94% | 1014.4 hPa | 0 mm | 0.45 m/s, 278° | - | - |
| 1778030690 | 27.22° C | 95% | 1014.1 hPa | 0 mm | 0.45 m/s, 313° | - | - |
| 1778030090 | 27.22° C | 95% | 1014.3 hPa | 0 mm | 0 m/s | - | - |
| 1778029490 | 26.67° C | 95% | 1014 hPa | 0 mm | 0 m/s | - | - |
| 1778028890 | 26.67° C | 96% | 1013.8 hPa | 0 mm | 0.45 m/s, 280° | - | - |
| 1778028290 | 26.67° C | 96% | 1013.7 hPa | 0 mm | 0 m/s | - | - |
| 1778027690 | 26.67° C | 96% | 1013.7 hPa | 0 mm | 0.45 m/s, 267° | - | - |
* Rain latest hour (hover to see other rain measurements)
** Current wind speed in m/s (hover to see current wind gust speed)